Time,TemperatureF,DewpointF,PressureIn,WindDirection,WindDirectionDegrees,WindSpeedMPH,WindSpeedGustMPH,Humidity,HourlyPrecipIn,Conditions,Clouds,dailyrainin,SoftwareType,DateUTC
2013-03-23 00:06:00,34.2,30.7,30.00,NE,47,0.0,3.0,87,0.00,OVC,,0.00,WeatherDisplay:10.37,2013-03-23 05:06:00,
2013-03-23 00:16:00,34.0,30.5,30.00,NE,50,0.0,3.0,87,0.00,OVC,,0.00,WeatherDisplay:10.37,2013-03-23 05:16:00,
2013-03-23 00:25:00,33.8,30.3,30.00,ENE,76,0.0,3.0,87,0.00,OVC,,0.00,WeatherDisplay:10.37,2013-03-23 05:25:00,
2013-03-23 00:36:00,33.8,30.3,30.00,East,101,0.0,0.0,87,0.00,OVC,,0.00,WeatherDisplay:10.37,2013-03-23 05:36:00,
2013-03-23 00:46:00,33.8,30.3,30.00,East,80,0.0,3.0,87,0.00,OVC,,0.00,WeatherDisplay:10.37,2013-03-23 05:46:00,
2013-03-23 00:56:00,33.8,30.3,30.00,NE,42,1.0,4.0,87,0.00,OVC,,0.00,WeatherDisplay:10.37,2013-03-23 05:56:00,
2013-03-23 01:06:00,33.8,30.3,30.00,NE,54,0.0,3.0,87,0.00,OVC,,0.00,WeatherDisplay:10.37,2013-03-23 06:06:00,
2013-03-23 01:16:00,33.8,30.3,30.00,NNE,31,0.0,2.0,87,0.00,OVC,,0.00,WeatherDisplay:10.37,2013-03-23 06:16:00,
2013-03-23 01:26:00,33.8,30.3,30.00,NE,42,1.0,5.0,87,0.00,OVC,,0.00,WeatherDisplay:10.37,2013-03-23 06:26:00,
2013-03-23 01:36:00,33.6,30.2,30.00,NE,37,1.0,3.0,87,0.00,OVC,,0.00,WeatherDisplay:10.37,2013-03-23 06:36:00,
2013-03-23 01:46:00,33.6,30.2,30.00,NE,35,1.0,6.0,87,0.00,OVC,,0.00,WeatherDisplay:10.37,2013-03-23 06:46:00,
2013-03-23 01:56:00,33.6,30.2,30.00,East,85,0.0,4.0,87,0.00,OVC,,0.00,WeatherDisplay:10.37,2013-03-23 06:56:00,
2013-03-23 02:06:00,33.6,30.2,30.00,NE,48,1.0,3.0,87,0.00,OVC,,0.00,WeatherDisplay:10.37,2013-03-23 07:06:00,
2013-03-23 02:16:00,33.6,30.2,30.00,NE,50,1.0,3.0,87,0.00,OVC,,0.00,WeatherDisplay:10.37,2013-03-23 07:16:00,
2013-03-23 02:26:00,33.6,30.2,30.00,NE,56,1.0,4.0,87,0.00,OVC,,0.00,WeatherDisplay:10.37,2013-03-23 07:26:00,
2013-03-23 02:36:00,33.6,30.2,30.00,NNE,25,1.0,4.0,87,0.00,OVC,,0.00,WeatherDisplay:10.37,2013-03-23 07:36:00,
2013-03-23 02:46:00,33.6,30.2,30.00,NE,41,0.0,4.0,87,0.00,OVC,,0.00,WeatherDisplay:10.37,2013-03-23 07:46:00,
2013-03-23 02:56:00,33.8,30.3,30.00,NNE,33,2.0,5.0,87,0.00,OVC,,0.00,WeatherDisplay:10.37,2013-03-23 07:56:00,
2013-03-23 03:06:00,33.8,30.3,30.00,NE,37,3.0,6.0,87,0.00,OVC,,0.00,WeatherDisplay:10.37,2013-03-23 08:06:00,
2013-03-23 03:16:00,33.8,30.3,30.00,NNE,27,3.0,5.0,87,0.00,OVC,,0.00,WeatherDisplay:10.37,2013-03-23 08:16:00,
2013-03-23 03:26:00,33.8,30.3,30.00,NNE,23,2.0,4.0,87,0.00,OVC,,0.00,WeatherDisplay:10.37,2013-03-23 08:26:00,
2013-03-23 03:36:00,33.8,30.3,29.97,NNE,29,0.0,3.0,87,0.00,OVC,,0.00,WeatherDisplay:10.37,2013-03-23 08:36:00,
2013-03-23 03:46:00,33.8,30.3,29.97,NE,36,2.0,4.0,87,0.00,OVC,,0.00,WeatherDisplay:10.37,2013-03-23 08:46:00,
2013-03-23 03:56:00,33.8,30.3,30.00,NNE,18,0.0,3.0,87,0.00,OVC,,0.00,WeatherDisplay:10.37,2013-03-23 08:56:00,
2013-03-23 04:06:00,33.8,30.3,30.00,NNE,12,0.0,3.0,87,0.00,OVC,,0.00,WeatherDisplay:10.37,2013-03-23 09:06:00,
2013-03-23 04:16:00,34.0,30.5,30.00,NE,55,2.0,4.0,87,0.00,OVC,,0.00,WeatherDisplay:10.37,2013-03-23 09:16:00,
2013-03-23 04:26:00,34.0,30.5,30.00,NE,47,0.0,4.0,87,0.00,OVC,,0.00,WeatherDisplay:10.37,2013-03-23 09:26:00,
2013-03-23 04:36:00,33.8,30.3,29.98,NE,55,0.0,2.0,87,0.00,OVC,,0.00,WeatherDisplay:10.37,2013-03-23 09:36:00,
2013-03-23 04:46:00,33.8,30.3,29.97,NE,49,1.0,4.0,87,0.00,OVC,,0.00,WeatherDisplay:10.37,2013-03-23 09:46:00,
2013-03-23 04:56:00,33.8,30.3,29.97,NE,55,0.0,0.0,87,0.00,OVC,,0.00,WeatherDisplay:10.37,2013-03-23 09:56:00,
2013-03-23 05:06:00,33.9,30.5,30.00,North,10,0.0,3.0,87,0.00,OVC,,0.00,WeatherDisplay:10.37,2013-03-23 10:06:00,
2013-03-23 05:16:00,34.0,30.5,30.00,NNE,17,2.0,4.0,87,0.00,OVC,,0.00,WeatherDisplay:10.37,2013-03-23 10:16:00,
2013-03-23 05:26:00,33.8,30.3,30.00,NNE,29,0.0,3.0,87,0.00,OVC,,0.00,WeatherDisplay:10.37,2013-03-23 10:26:00,
2013-03-23 05:36:00,34.0,30.8,30.00,NNE,32,1.0,4.0,88,0.00,OVC,,0.00,WeatherDisplay:10.37,2013-03-23 10:36:00,
2013-03-23 05:46:00,33.8,30.9,30.00,NNE,25,3.0,4.0,89,0.00,OVC,,0.00,WeatherDisplay:10.37,2013-03-23 10:46:00,
2013-03-23 05:56:00,33.6,31.0,30.00,NNE,28,3.0,4.0,90,0.00,OVC,,0.00,WeatherDisplay:10.37,2013-03-23 10:56:00,
2013-03-23 06:06:00,33.6,31.0,30.00,NE,39,2.0,5.0,90,0.00,OVC,,0.00,WeatherDisplay:10.37,2013-03-23 11:06:00,
2013-03-23 06:16:00,33.6,31.0,30.00,NE,34,0.0,4.0,90,0.00,OVC,,0.00,WeatherDisplay:10.37,2013-03-23 11:16:00,
2013-03-23 06:27:00,34.0,28.8,30.00,NE,51,3.6,3.6,81,0.00,CLR,,0.00,WeatherDisplay:10.37,2013-03-23 11:27:00,
2013-03-23 06:32:00,34.0,28.8,30.00,NE,43,2.3,3.1,81,0.00,OVC,,0.00,WeatherDisplay:10.37,2013-03-23 11:32:00,
2013-03-23 06:37:00,34.0,28.8,30.00,NNE,19,3.5,3.6,81,0.00,OVC,,0.00,WeatherDisplay:10.37,2013-03-23 11:37:00,
2013-03-23 06:42:00,34.0,28.8,30.00,ENE,66,6.9,6.9,81,0.00,OVC,,0.00,WeatherDisplay:10.37,2013-03-23 11:42:00,
2013-03-23 06:47:00,34.0,28.8,30.00,NE,53,3.5,3.6,81,0.00,OVC,,0.00,WeatherDisplay:10.37,2013-03-23 11:47:00,
2013-03-23 06:52:00,34.0,28.8,30.00,NE,52,5.8,5.8,81,0.00,OVC,,0.00,WeatherDisplay:10.37,2013-03-23 11:52:00,
2013-03-23 06:57:00,34.0,28.8,30.00,North,357,3.5,3.5,81,0.00,OVC,,0.00,WeatherDisplay:10.37,2013-03-23 11:57:00,
2013-03-23 07:02:00,34.0,28.8,30.00,NE,39,3.5,3.5,81,0.00,OVC,,0.00,WeatherDisplay:10.37,2013-03-23 12:02:00,
2013-03-23 07:07:00,34.0,28.8,30.00,NE,43,3.5,3.5,81,0.00,OVC,,0.00,WeatherDisplay:10.37,2013-03-23 12:07:00,
2013-03-23 07:12:00,34.0,28.8,30.00,NE,56,3.5,3.6,81,0.00,OVC,,0.00,WeatherDisplay:10.37,2013-03-23 12:12:00,
2013-03-23 07:18:00,34.0,28.8,30.00,NNE,27,4.6,4.6,81,0.00,OVC,,0.00,WeatherDisplay:10.37,2013-03-23 12:18:00,
2013-03-23 07:23:00,34.0,28.8,30.00,NNE,17,3.5,3.6,81,0.00,OVC,,0.00,WeatherDisplay:10.37,2013-03-23 12:23:00,
2013-03-23 07:28:00,34.0,28.8,30.00,NE,45,3.5,0.0,81,0.00,OVC,,0.00,WeatherDisplay:10.37,2013-03-23 12:28:00,
2013-03-23 07:33:00,34.0,28.8,30.00,ENE,61,2.3,0.0,81,0.00,OVC,,0.00,WeatherDisplay:10.37,2013-03-23 12:33:00,
2013-03-23 07:38:00,34.0,28.8,30.00,NNE,32,3.6,3.6,81,0.00,OVC,,0.00,WeatherDisplay:10.37,2013-03-23 12:38:00,
2013-03-23 07:43:00,34.0,28.8,30.00,NNW,347,5.8,5.8,81,0.00,OVC,,0.00,WeatherDisplay:10.37,2013-03-23 12:43:00,
2013-03-23 07:48:00,34.0,28.8,30.00,ENE,62,5.8,5.8,81,0.00,OVC,,0.00,WeatherDisplay:10.37,2013-03-23 12:48:00,
2013-03-23 07:53:00,34.0,28.8,30.00,NE,53,5.8,5.8,81,0.00,OVC,,0.00,WeatherDisplay:10.37,2013-03-23 12:53:00,
2013-03-23 07:58:00,34.0,28.8,30.00,North,5,4.6,4.6,81,0.00,OVC,,0.00,WeatherDisplay:10.37,2013-03-23 12:58:00,
2013-03-23 08:03:00,34.0,28.8,30.00,North,5,2.7,3.1,81,0.00,OVC,,0.00,WeatherDisplay:10.37,2013-03-23 13:03:00,
2013-03-23 08:08:00,34.0,28.8,30.00,North,8,4.6,4.6,81,0.00,OVC,,0.00,WeatherDisplay:10.37,2013-03-23 13:08:00,
2013-03-23 08:13:00,34.0,28.8,30.00,NNE,16,8.1,8.1,81,0.00,OVC,,0.00,WeatherDisplay:10.37,2013-03-23 13:13:00,
2013-03-23 08:18:00,34.0,28.8,30.00,NNE,21,3.5,3.5,81,0.00,OVC,,0.00,WeatherDisplay:10.37,2013-03-23 13:18:00,
2013-03-23 08:23:00,34.0,28.8,30.00,NNE,31,3.5,4.5,81,0.00,OVC,,0.00,WeatherDisplay:10.37,2013-03-23 13:23:00,
2013-03-23 08:28:00,34.0,28.8,30.00,NE,55,3.5,3.5,81,0.00,OVC,,0.00,WeatherDisplay:10.37,2013-03-23 13:28:00,
2013-03-23 08:33:00,34.0,28.8,30.00,NNE,25,5.8,5.8,81,0.00,OVC,,0.00,WeatherDisplay:10.37,2013-03-23 13:33:00,
2013-03-23 08:38:00,34.0,28.8,30.00,East,99,2.3,2.3,81,0.00,OVC,,0.00,WeatherDisplay:10.37,2013-03-23 13:38:00,
2013-03-23 08:43:00,34.0,28.8,30.00,NE,43,6.9,6.9,81,0.00,OVC,,0.00,WeatherDisplay:10.37,2013-03-23 13:43:00,
2013-03-23 08:48:00,34.0,28.8,30.00,NNE,22,5.8,5.8,81,0.00,OVC,,0.00,WeatherDisplay:10.37,2013-03-23 13:48:00,
2013-03-23 08:53:00,34.0,28.8,30.00,NNE,31,3.5,3.5,81,0.00,OVC,,0.00,WeatherDisplay:10.37,2013-03-23 13:53:00,
2013-03-23 08:58:00,34.0,28.8,30.00,ENE,65,3.5,3.5,81,0.00,OVC,,0.00,WeatherDisplay:10.37,2013-03-23 13:58:00,
2013-03-23 09:03:00,35.1,27.9,30.00,NNE,29,3.6,3.6,75,0.00,OVC,,0.00,WeatherDisplay:10.37,2013-03-23 14:03:00,
2013-03-23 09:08:00,35.1,27.9,30.03,ENE,72,3.5,3.6,75,0.00,OVC,,0.00,WeatherDisplay:10.37,2013-03-23 14:08:00,
2013-03-23 09:13:00,35.1,27.9,30.03,NNE,33,3.5,3.5,75,0.00,OVC,,0.00,WeatherDisplay:10.37,2013-03-23 14:13:00,
2013-03-23 09:18:00,35.1,27.9,30.03,ENE,62,3.5,3.6,75,0.00,OVC,,0.00,WeatherDisplay:10.37,2013-03-23 14:18:00,
2013-03-23 09:23:00,35.1,27.9,30.03,North,6,3.5,3.5,75,0.00,OVC,,0.00,WeatherDisplay:10.37,2013-03-23 14:23:00,
2013-03-23 09:28:00,35.1,27.9,30.03,NNE,30,5.8,5.8,75,0.00,OVC,,0.00,WeatherDisplay:10.37,2013-03-23 14:28:00,
2013-03-23 09:33:00,35.1,27.9,30.03,NE,49,3.5,3.5,75,0.00,OVC,,0.00,WeatherDisplay:10.37,2013-03-23 14:33:00,
2013-03-23 09:38:00,35.1,27.9,30.03,ENE,78,5.8,5.8,75,0.00,OVC,,0.00,WeatherDisplay:10.37,2013-03-23 14:38:00,
2013-03-23 09:43:00,35.1,27.9,30.03,NE,52,2.7,2.7,75,0.00,OVC,,0.00,WeatherDisplay:10.37,2013-03-23 14:43:00,
2013-03-23 09:48:00,35.1,27.9,30.03,NE,34,3.5,3.6,75,0.00,OVC,,0.00,WeatherDisplay:10.37,2013-03-23 14:48:00,
2013-03-23 09:53:00,35.1,27.9,30.00,ENE,71,5.8,5.8,75,0.00,OVC,,0.00,WeatherDisplay:10.37,2013-03-23 14:53:00,
2013-03-23 09:58:00,35.1,27.9,30.00,NNE,28,3.5,3.5,75,0.00,OVC,,0.00,WeatherDisplay:10.37,2013-03-23 14:58:00,
2013-03-23 10:03:00,36.0,27.8,30.00,NE,36,5.8,5.8,72,0.00,OVC,,0.00,WeatherDisplay:10.37,2013-03-23 15:03:00,
2013-03-23 10:08:00,36.0,27.8,30.03,NNE,31,4.6,4.6,72,0.00,OVC,,0.00,WeatherDisplay:10.37,2013-03-23 15:08:00,
2013-03-23 10:13:00,36.0,27.8,30.03,NE,41,3.5,3.6,72,0.00,OVC,,0.00,WeatherDisplay:10.37,2013-03-23 15:13:00,
2013-03-23 10:18:00,36.0,27.8,30.03,NE,36,2.3,2.7,72,0.00,OVC,,0.00,WeatherDisplay:10.37,2013-03-23 15:18:00,
2013-03-23 10:24:00,36.0,27.8,30.06,ENE,57,4.6,4.6,72,0.00,OVC,,0.00,WeatherDisplay:10.37,2013-03-23 15:24:00,
2013-03-23 10:29:00,36.0,27.8,30.06,NNE,22,3.5,4.0,72,0.00,OVC,,0.00,WeatherDisplay:10.37,2013-03-23 15:29:00,
2013-03-23 10:34:00,36.0,27.8,30.03,NE,55,5.8,5.8,72,0.00,OVC,,0.00,WeatherDisplay:10.37,2013-03-23 15:34:00,
2013-03-23 10:39:00,36.0,27.8,30.02,NE,54,3.5,3.5,72,0.00,OVC,,0.00,WeatherDisplay:10.37,2013-03-23 15:39:00,
2013-03-23 10:44:00,36.0,27.8,30.03,NE,42,5.8,5.8,72,0.00,OVC,,0.00,WeatherDisplay:10.37,2013-03-23 15:44:00,
2013-03-23 10:49:00,36.0,27.8,30.06,North,7,5.8,5.8,72,0.00,OVC,,0.00,WeatherDisplay:10.37,2013-03-23 15:49:00,
2013-03-23 10:54:00,36.0,27.8,30.06,NE,52,3.5,3.5,72,0.00,OVC,,0.00,WeatherDisplay:10.37,2013-03-23 15:54:00,
2013-03-23 10:59:00,36.0,27.8,30.06,NE,37,5.8,5.8,72,0.00,OVC,,0.00,WeatherDisplay:10.37,2013-03-23 15:59:00,
2013-03-23 11:04:00,36.0,26.8,30.03,SE,126,2.3,2.3,69,0.00,OVC,,0.00,WeatherDisplay:10.37,2013-03-23 16:04:00,
2013-03-23 11:09:00,36.0,26.8,30.03,NNE,20,5.8,5.8,69,0.00,OVC,,0.00,WeatherDisplay:10.37,2013-03-23 16:09:00,
2013-03-23 11:14:00,36.0,26.8,30.03,ENE,62,5.8,5.8,69,0.00,OVC,,0.00,WeatherDisplay:10.37,2013-03-23 16:14:00,
2013-03-23 11:19:00,36.0,26.8,30.03,SSW,195,5.8,5.8,69,0.00,OVC,,0.00,WeatherDisplay:10.37,2013-03-23 16:19:00,
2013-03-23 11:24:00,36.0,26.8,30.03,NNE,24,4.6,4.6,69,0.00,OVC,,0.00,WeatherDisplay:10.37,2013-03-23 16:24:00,
2013-03-23 11:29:00,36.0,26.8,30.03,NE,43,5.8,5.8,69,0.00,OVC,,0.00,WeatherDisplay:10.37,2013-03-23 16:29:00,
2013-03-23 11:34:00,36.0,26.8,30.03,NNE,29,5.8,5.8,69,0.00,OVC,,0.00,WeatherDisplay:10.37,2013-03-23 16:34:00,
2013-03-23 11:39:00,36.0,26.8,30.05,NNE,16,6.9,6.9,69,0.00,OVC,,0.00,WeatherDisplay:10.37,2013-03-23 16:39:00,
2013-03-23 11:44:00,36.0,26.8,30.03,NE,38,5.8,5.8,69,0.00,OVC,,0.00,WeatherDisplay:10.37,2013-03-23 16:44:00,
2013-03-23 11:49:00,36.0,26.8,30.00,ENE,70,6.9,6.9,69,0.00,OVC,,0.00,WeatherDisplay:10.37,2013-03-23 16:49:00,
2013-03-23 11:54:00,36.0,26.8,30.00,East,101,3.5,3.6,69,0.00,OVC,,0.00,WeatherDisplay:10.37,2013-03-23 16:54:00,
2013-03-23 11:59:00,36.0,26.8,30.00,NNE,16,5.8,5.8,69,0.00,OVC,,0.00,WeatherDisplay:10.37,2013-03-23 16:59:00,
2013-03-23 12:04:00,37.0,26.7,30.00,ENE,73,5.8,5.8,66,0.00,-SN,,0.00,WeatherDisplay:10.37,2013-03-23 17:04:00,
2013-03-23 12:09:00,37.0,26.7,30.00,ENE,57,6.3,6.3,66,0.00,-SN,,0.00,WeatherDisplay:10.37,2013-03-23 17:09:00,
2013-03-23 12:14:00,37.0,26.7,30.00,ENE,63,4.0,4.0,66,0.00,-SN,,0.00,WeatherDisplay:10.37,2013-03-23 17:14:00,
2013-03-23 12:19:00,37.0,26.7,30.00,NE,56,5.8,5.8,66,0.00,-SN,,0.00,WeatherDisplay:10.37,2013-03-23 17:19:00,
2013-03-23 12:24:00,37.0,26.7,30.00,North,11,5.8,5.8,66,0.00,-SN,,0.00,WeatherDisplay:10.37,2013-03-23 17:24:00,
2013-03-23 12:29:00,37.0,26.7,30.00,East,81,5.8,5.8,66,0.00,-SN,,0.00,WeatherDisplay:10.37,2013-03-23 17:29:00,
2013-03-23 12:34:00,37.9,25.7,29.97,SSE,156,5.8,5.8,61,0.00,OVC,,0.00,WeatherDisplay:10.37,2013-03-23 17:34:00,
2013-03-23 12:39:00,37.9,25.7,29.97,NNE,26,5.8,5.8,61,0.00,OVC,,0.00,WeatherDisplay:10.37,2013-03-23 17:39:00,
2013-03-23 12:44:00,37.9,25.7,29.97,ENE,58,5.8,5.8,61,0.00,OVC,,0.00,WeatherDisplay:10.37,2013-03-23 17:44:00,
2013-03-23 12:49:00,37.9,25.7,29.97,NE,41,5.8,5.8,61,0.00,OVC,,0.00,WeatherDisplay:10.37,2013-03-23 17:49:00,
2013-03-23 12:54:00,37.9,25.7,29.97,ENE,68,2.3,3.1,61,0.00,OVC,,0.00,WeatherDisplay:10.37,2013-03-23 17:54:00,
2013-03-23 12:59:00,37.9,25.7,29.97,NE,45,4.6,4.6,61,0.00,OVC,,0.00,WeatherDisplay:10.37,2013-03-23 17:59:00,
2013-03-23 13:04:00,37.9,25.7,30.00,East,99,3.5,0.0,61,0.00,OVC,,0.00,WeatherDisplay:10.37,2013-03-23 18:04:00,
2013-03-23 13:09:00,37.9,25.7,30.00,NE,38,5.8,5.8,61,0.00,OVC,,0.00,WeatherDisplay:10.37,2013-03-23 18:09:00,
2013-03-23 13:14:00,37.9,25.7,30.00,NE,43,3.5,3.5,61,0.00,OVC,,0.00,WeatherDisplay:10.37,2013-03-23 18:14:00,
2013-03-23 13:19:00,37.9,25.7,29.97,NNE,32,5.8,5.8,61,0.00,OVC,,0.00,WeatherDisplay:10.37,2013-03-23 18:19:00,
2013-03-23 13:24:00,37.9,25.7,29.97,East,83,3.5,3.5,61,0.00,OVC,,0.00,WeatherDisplay:10.37,2013-03-23 18:24:00,
2013-03-23 13:29:00,37.9,25.7,29.97,ENE,69,2.3,0.0,61,0.00,OVC,,0.00,WeatherDisplay:10.37,2013-03-23 18:29:00,
2013-03-23 13:34:00,37.9,25.7,30.00,NNE,33,3.5,3.5,61,0.00,OVC,,0.00,WeatherDisplay:10.37,2013-03-23 18:34:00,
2013-03-23 13:39:00,37.9,25.7,30.00,North,4,5.4,5.4,61,0.00,OVC,,0.00,WeatherDisplay:10.37,2013-03-23 18:39:00,
2013-03-23 13:44:00,37.9,25.7,29.98,NE,47,3.5,3.5,61,0.00,OVC,,0.00,WeatherDisplay:10.37,2013-03-23 18:44:00,
2013-03-23 13:49:00,37.9,25.7,29.97,North,6,5.8,5.8,61,0.00,OVC,,0.00,WeatherDisplay:10.37,2013-03-23 18:49:00,
2013-03-23 13:54:00,37.9,25.7,29.97,NE,51,3.5,3.5,61,0.00,OVC,,0.00,WeatherDisplay:10.37,2013-03-23 18:54:00,
2013-03-23 13:59:00,37.9,25.7,29.97,NE,43,5.8,5.8,61,0.00,OVC,,0.00,WeatherDisplay:10.37,2013-03-23 18:59:00,
2013-03-23 14:04:00,37.9,25.7,29.94,NNE,28,5.8,5.8,61,0.00,OVC,,0.00,WeatherDisplay:10.37,2013-03-23 19:04:00,
2013-03-23 14:10:00,37.9,25.7,29.94,ENE,70,8.1,8.1,61,0.00,OVC,,0.00,WeatherDisplay:10.37,2013-03-23 19:10:00,
2013-03-23 14:15:00,37.9,26.8,29.94,ESE,107,8.1,8.1,64,0.00,OVC,,0.00,WeatherDisplay:10.37,2013-03-23 19:15:00,
2013-03-23 14:20:00,37.9,26.8,29.94,NE,34,3.5,3.5,64,0.00,OVC,,0.00,WeatherDisplay:10.37,2013-03-23 19:20:00,
2013-03-23 14:25:00,37.9,26.8,29.94,NNE,14,8.1,8.1,64,0.00,OVC,,0.00,WeatherDisplay:10.37,2013-03-23 19:25:00,
2013-03-23 14:30:00,37.9,26.8,29.94,ENE,58,3.5,3.5,64,0.00,OVC,,0.00,WeatherDisplay:10.37,2013-03-23 19:30:00,
2013-03-23 14:35:00,37.9,26.8,29.94,East,94,4.6,4.6,64,0.00,OVC,,0.00,WeatherDisplay:10.37,2013-03-23 19:35:00,
2013-03-23 14:40:00,37.9,26.8,29.94,NNE,16,4.6,4.6,64,0.00,OVC,,0.00,WeatherDisplay:10.37,2013-03-23 19:40:00,
2013-03-23 14:45:00,37.9,26.8,29.94,NE,56,5.8,5.8,64,0.00,OVC,,0.00,WeatherDisplay:10.37,2013-03-23 19:45:00,
2013-03-23 14:50:00,37.9,26.8,29.94,NE,44,6.3,6.3,64,0.00,OVC,,0.00,WeatherDisplay:10.37,2013-03-23 19:50:00,
2013-03-23 14:55:00,37.9,26.8,29.94,NNE,12,4.6,4.6,64,0.00,-SN,,0.00,WeatherDisplay:10.37,2013-03-23 19:55:00,
2013-03-23 15:00:00,37.9,26.8,29.94,NE,38,3.5,3.5,64,0.00,-SN,,0.00,WeatherDisplay:10.37,2013-03-23 20:00:00,
2013-03-23 15:05:00,37.0,29.8,29.94,NE,40,0.0,0.0,75,0.00,-SN,,0.00,WeatherDisplay:10.37,2013-03-23 20:05:00,
2013-03-23 15:10:00,37.0,29.8,29.94,NE,55,4.6,4.6,75,0.00,-SN,,0.00,WeatherDisplay:10.37,2013-03-23 20:10:00,
2013-03-23 15:15:00,37.0,29.8,29.94,NNE,32,3.0,5.0,75,0.00,-SN,,0.00,WeatherDisplay:10.37,2013-03-23 20:15:00,
2013-03-23 15:20:00,37.0,29.8,29.94,NE,49,4.5,4.5,75,0.00,-SN,,0.00,WeatherDisplay:10.37,2013-03-23 20:20:00,
2013-03-23 15:25:00,37.0,29.8,29.95,NNE,22,5.8,5.8,75,0.00,-SN,,0.00,WeatherDisplay:10.37,2013-03-23 20:25:00,
2013-03-23 15:30:00,37.0,29.8,29.94,ENE,60,5.8,5.8,75,0.00,-SN,,0.00,WeatherDisplay:10.37,2013-03-23 20:30:00,
2013-03-23 15:35:00,37.0,29.8,29.91,NNE,32,4.9,4.9,75,0.00,-SN,,0.00,WeatherDisplay:10.37,2013-03-23 20:35:00,
2013-03-23 15:40:00,37.0,29.8,29.91,NE,48,4.6,4.6,75,0.00,-SN,,0.00,WeatherDisplay:10.37,2013-03-23 20:40:00,
2013-03-23 15:45:00,35.1,29.8,29.91,NE,37,3.5,3.5,81,0.00,-SN,,0.00,WeatherDisplay:10.37,2013-03-23 20:45:00,
2013-03-23 15:50:00,35.1,29.8,29.91,NE,47,2.3,0.0,81,0.00,-SN,,0.00,WeatherDisplay:10.37,2013-03-23 20:50:00,
2013-03-23 15:55:00,35.1,29.8,29.91,NNE,23,3.5,3.5,81,0.00,-SN,,0.00,WeatherDisplay:10.37,2013-03-23 20:55:00,
2013-03-23 16:00:00,35.1,29.8,29.91,NE,46,3.5,0.0,81,0.00,-SN,,0.00,WeatherDisplay:10.37,2013-03-23 21:00:00,
2013-03-23 16:05:00,34.0,30.8,29.91,ENE,77,3.5,3.5,88,0.00,CLR,,0.00,WeatherDisplay:10.37,2013-03-23 21:05:00,
2013-03-23 16:10:00,34.0,30.8,29.91,NNE,28,2.3,0.0,88,0.00,CLR,,0.00,WeatherDisplay:10.37,2013-03-23 21:10:00,
2013-03-23 16:15:00,34.0,30.8,29.91,NE,42,3.1,3.1,88,0.00,CLR,,0.00,WeatherDisplay:10.37,2013-03-23 21:15:00,
2013-03-23 16:20:00,34.0,30.8,29.91,ENE,67,3.5,0.0,88,0.00,CLR,,0.00,WeatherDisplay:10.37,2013-03-23 21:20:00,
2013-03-23 16:25:00,34.0,30.8,29.91,ENE,62,3.5,3.6,88,0.00,OVC,,0.00,WeatherDisplay:10.37,2013-03-23 21:25:00,
2013-03-23 16:30:00,34.0,30.8,29.91,NE,44,3.5,3.5,88,0.00,OVC,,0.00,WeatherDisplay:10.37,2013-03-23 21:30:00,
2013-03-23 16:35:00,34.0,30.8,29.91,NNE,25,3.5,3.5,88,0.00,OVC,,0.00,WeatherDisplay:10.37,2013-03-23 21:35:00,
2013-03-23 16:40:00,34.0,30.8,29.91,NE,55,4.6,4.6,88,0.00,OVC,,0.00,WeatherDisplay:10.37,2013-03-23 21:40:00,
2013-03-23 16:45:00,34.0,31.9,29.91,NE,47,3.5,3.5,92,0.00,OVC,,0.00,WeatherDisplay:10.37,2013-03-23 21:45:00,
2013-03-23 16:50:00,34.0,31.9,29.91,NNE,23,4.6,4.6,92,0.00,OVC,,0.00,WeatherDisplay:10.37,2013-03-23 21:50:00,
2013-03-23 16:55:00,34.0,31.9,29.91,NW,320,3.5,3.5,92,0.00,OVC,,0.00,WeatherDisplay:10.37,2013-03-23 21:55:00,
2013-03-23 17:00:00,34.0,31.9,29.91,ENE,74,4.6,4.6,92,0.00,OVC,,0.00,WeatherDisplay:10.37,2013-03-23 22:00:00,
2013-03-23 17:05:00,34.0,31.9,29.91,NE,54,3.5,3.5,92,0.00,-SN,,0.00,WeatherDisplay:10.37,2013-03-23 22:05:00,
2013-03-23 17:10:00,34.0,31.9,29.91,North,1,3.5,3.5,92,0.00,-SN,,0.00,WeatherDisplay:10.37,2013-03-23 22:10:00,
2013-03-23 17:15:00,34.0,31.9,29.91,NE,49,3.5,0.0,92,0.00,-SN,,0.00,WeatherDisplay:10.37,2013-03-23 22:15:00,
2013-03-23 17:20:00,34.0,31.9,29.94,NE,53,3.5,3.5,92,0.00,-SN,,0.00,WeatherDisplay:10.37,2013-03-23 22:20:00,
2013-03-23 17:25:00,34.0,31.9,29.94,NE,36,5.8,5.8,92,0.00,-SN,,0.00,WeatherDisplay:10.37,2013-03-23 22:25:00,
2013-03-23 17:30:00,34.0,31.9,29.94,NNE,24,4.6,4.6,92,0.00,-SN,,0.00,WeatherDisplay:10.37,2013-03-23 22:30:00,
2013-03-23 17:35:00,34.0,31.9,29.91,North,7,5.8,5.8,92,0.00,-SN,,0.00,WeatherDisplay:10.37,2013-03-23 22:35:00,
2013-03-23 17:40:00,34.0,31.9,29.91,NNE,33,3.5,3.5,92,0.00,-SN,,0.00,WeatherDisplay:10.37,2013-03-23 22:40:00,
2013-03-23 17:45:00,34.0,31.9,29.91,ENE,69,4.6,4.6,92,0.00,-SN,,0.00,WeatherDisplay:10.37,2013-03-23 22:45:00,
2013-03-23 17:50:00,34.0,31.9,29.91,NNE,22,3.5,3.5,92,0.00,-SN,,0.00,WeatherDisplay:10.37,2013-03-23 22:50:00,
2013-03-23 17:55:00,34.0,31.9,29.91,NNE,31,3.5,3.5,92,0.00,-SN,,0.00,WeatherDisplay:10.37,2013-03-23 22:55:00,
2013-03-23 18:00:00,34.0,31.9,29.91,NE,36,5.8,5.8,92,0.00,-SN,,0.00,WeatherDisplay:10.37,2013-03-23 23:00:00,
2013-03-23 18:05:00,34.0,31.9,29.91,North,5,2.3,3.6,92,0.00,-SN,,0.00,WeatherDisplay:10.37,2013-03-23 23:05:00,
2013-03-23 18:10:00,34.0,31.9,29.91,NNE,32,3.6,3.6,92,0.00,-SN,,0.00,WeatherDisplay:10.37,2013-03-23 23:10:00,
2013-03-23 18:15:00,34.0,31.9,29.91,NE,37,5.8,5.8,92,0.00,OVC,,0.00,WeatherDisplay:10.37,2013-03-23 23:15:00,
2013-03-23 18:20:00,34.0,31.9,29.91,NNE,18,8.1,8.1,92,0.00,OVC,,0.00,WeatherDisplay:10.37,2013-03-23 23:20:00,
2013-03-23 18:25:00,34.0,31.9,29.91,North,4,5.8,5.8,92,0.00,-SN,,0.00,WeatherDisplay:10.37,2013-03-23 23:25:00,
2013-03-23 18:30:00,34.0,31.9,29.91,NNE,25,5.8,5.8,92,0.00,-SN,,0.00,WeatherDisplay:10.37,2013-03-23 23:30:00,
2013-03-23 18:35:00,34.0,31.9,29.91,ENE,61,4.6,4.6,92,0.00,-SN,,0.00,WeatherDisplay:10.37,2013-03-23 23:35:00,
2013-03-23 18:40:00,34.0,31.9,29.91,NNE,21,5.8,5.8,92,0.00,-SN,,0.00,WeatherDisplay:10.37,2013-03-23 23:40:00,
2013-03-23 18:45:00,34.0,31.9,29.91,NNW,332,4.6,4.6,92,0.00,-SN,,0.00,WeatherDisplay:10.37,2013-03-23 23:45:00,
2013-03-23 18:50:00,34.0,31.9,29.91,North,352,3.5,4.0,92,0.00,-SN,,0.00,WeatherDisplay:10.37,2013-03-23 23:50:00,
2013-03-23 18:55:00,34.0,31.9,29.91,North,1,6.9,6.9,92,0.00,-SN,,0.00,WeatherDisplay:10.37,2013-03-23 23:55:00,
2013-03-23 19:00:00,34.0,31.9,29.91,ENE,58,9.6,9.6,92,0.00,-SN,,0.00,WeatherDisplay:10.37,2013-03-24 00:00:00,
2013-03-23 19:05:00,34.0,31.9,29.91,NNE,15,5.8,5.8,92,0.00,-SN,,0.00,WeatherDisplay:10.37,2013-03-24 00:05:00,
2013-03-23 19:10:00,34.0,31.9,29.91,NE,55,5.8,5.8,92,0.00,-SN,,0.00,WeatherDisplay:10.37,2013-03-24 00:10:00,
2013-03-23 19:15:00,34.0,31.9,29.91,NE,52,5.8,5.8,92,0.00,-SN,,0.00,WeatherDisplay:10.37,2013-03-24 00:15:00,
2013-03-23 19:20:00,34.0,31.9,29.94,NE,43,4.6,4.6,92,0.00,-SN,,0.00,WeatherDisplay:10.37,2013-03-24 00:20:00,
2013-03-23 19:25:00,34.0,31.9,29.94,NE,43,3.5,3.5,92,0.00,OVC,,0.00,WeatherDisplay:10.37,2013-03-24 00:25:00,
2013-03-23 19:30:00,34.0,31.9,29.94,NNE,16,3.5,3.5,92,0.00,OVC,,0.00,WeatherDisplay:10.37,2013-03-24 00:30:00,
2013-03-23 19:35:00,34.0,31.9,29.94,NNE,14,5.8,5.8,92,0.00,OVC,,0.00,WeatherDisplay:10.37,2013-03-24 00:35:00,
2013-03-23 19:40:00,34.0,31.9,29.94,NE,51,5.8,5.8,92,0.00,OVC,,0.00,WeatherDisplay:10.37,2013-03-24 00:40:00,
2013-03-23 19:45:00,34.0,31.9,29.94,ENE,61,5.8,5.8,92,0.00,OVC,,0.00,WeatherDisplay:10.37,2013-03-24 00:45:00,
2013-03-23 19:50:00,34.0,31.9,29.94,ENE,61,5.8,5.8,92,0.00,OVC,,0.00,WeatherDisplay:10.37,2013-03-24 00:50:00,
2013-03-23 19:55:00,34.0,31.9,29.94,NE,36,5.8,5.8,92,0.00,-SN,,0.00,WeatherDisplay:10.37,2013-03-24 00:55:00,
2013-03-23 20:00:00,34.0,31.9,29.94,NNW,339,5.8,5.8,92,0.00,-SN,,0.00,WeatherDisplay:10.37,2013-03-24 01:00:00,
2013-03-23 20:05:00,34.0,31.9,29.94,NE,40,5.8,5.8,92,0.00,-SN,,0.00,WeatherDisplay:10.37,2013-03-24 01:05:00,
2013-03-23 20:10:00,34.0,31.9,29.94,NNE,28,3.5,3.5,92,0.00,-SN,,0.00,WeatherDisplay:10.37,2013-03-24 01:10:00,
2013-03-23 20:15:00,34.0,31.9,29.94,NNE,16,4.6,4.6,92,0.00,-SN,,0.00,WeatherDisplay:10.37,2013-03-24 01:15:00,
2013-03-23 20:20:00,34.0,31.9,29.94,NNE,28,3.5,3.5,92,0.00,-SN,,0.00,WeatherDisplay:10.37,2013-03-24 01:20:00,
2013-03-23 20:25:00,34.0,31.9,29.94,NNE,12,0.0,0.0,92,0.00,-SN,,0.00,WeatherDisplay:10.37,2013-03-24 01:25:00,
2013-03-23 20:30:00,34.0,31.9,29.94,NNE,21,0.0,0.0,92,0.00,-SN,,0.00,WeatherDisplay:10.37,2013-03-24 01:30:00,
2013-03-23 20:35:00,34.0,31.9,29.94,NNW,330,0.0,0.0,92,0.00,-SN,,0.00,WeatherDisplay:10.37,2013-03-24 01:35:00,
2013-03-23 20:40:00,34.0,31.9,29.94,North,7,0.0,0.0,92,0.00,-SN,,0.00,WeatherDisplay:10.37,2013-03-24 01:40:00,
2013-03-23 20:45:00,34.0,31.9,29.94,NNE,17,0.0,0.0,92,0.00,-SN,,0.00,WeatherDisplay:10.37,2013-03-24 01:45:00,
2013-03-23 20:50:00,34.0,31.9,29.94,East,92,0.0,0.0,92,0.00,-SN,,0.00,WeatherDisplay:10.37,2013-03-24 01:50:00,
2013-03-23 20:55:00,33.1,30.7,29.94,NE,41,0.0,0.0,91,0.00,-SN,,0.00,WeatherDisplay:10.37,2013-03-24 01:55:00,
2013-03-23 21:00:00,33.1,30.7,29.94,North,353,0.0,0.0,91,0.00,-SN,,0.00,WeatherDisplay:10.37,2013-03-24 02:00:00,
2013-03-23 21:05:00,33.1,29.9,29.94,North,8,0.0,0.0,88,0.00,-SN,,0.00,WeatherDisplay:10.37,2013-03-24 02:05:00,
2013-03-23 21:10:00,33.1,29.9,29.94,North,354,0.0,0.0,88,0.00,-SN,,0.00,WeatherDisplay:10.37,2013-03-24 02:10:00,
2013-03-23 21:15:00,33.1,29.9,29.94,North,8,0.0,0.0,88,0.00,-SN,,0.00,WeatherDisplay:10.37,2013-03-24 02:15:00,
2013-03-23 21:20:00,33.1,29.9,29.97,NE,44,0.0,0.0,88,0.00,-SN,,0.00,WeatherDisplay:10.37,2013-03-24 02:20:00,
2013-03-23 21:25:00,33.1,29.9,29.97,NNE,16,0.0,0.0,88,0.00,-SN,,0.00,WeatherDisplay:10.37,2013-03-24 02:25:00,
2013-03-23 21:30:00,33.1,29.9,29.97,NNE,16,0.0,0.0,88,0.00,-SN,,0.00,WeatherDisplay:10.37,2013-03-24 02:30:00,
2013-03-23 21:35:00,33.1,29.9,29.94,NNE,16,0.0,0.0,88,0.00,-SN,,0.00,WeatherDisplay:10.37,2013-03-24 02:35:00,
2013-03-23 21:40:00,33.1,29.9,29.94,NNE,16,0.0,0.0,88,0.00,-SN,,0.00,WeatherDisplay:10.37,2013-03-24 02:40:00,
2013-03-23 21:45:00,33.1,29.9,29.94,NNE,16,0.0,0.0,88,0.00,-SN,,0.00,WeatherDisplay:10.37,2013-03-24 02:45:00,
2013-03-23 21:51:00,33.1,29.9,29.94,NNE,16,0.0,0.0,88,0.00,-SN,,0.00,WeatherDisplay:10.37,2013-03-24 02:51:00,
2013-03-23 21:56:00,32.0,28.8,29.94,NNE,16,0.0,0.0,88,0.00,OVC,,0.00,WeatherDisplay:10.37,2013-03-24 02:56:00,
2013-03-23 22:01:00,32.0,28.8,29.94,NNE,16,0.0,0.0,88,0.00,OVC,,0.00,WeatherDisplay:10.37,2013-03-24 03:01:00,
2013-03-23 22:06:00,32.0,28.8,29.94,NNE,16,0.0,0.0,88,0.00,OVC,,0.00,WeatherDisplay:10.37,2013-03-24 03:06:00,
2013-03-23 22:11:00,32.0,28.8,29.94,NNE,16,0.0,0.0,88,0.00,OVC,,0.00,WeatherDisplay:10.37,2013-03-24 03:11:00,
2013-03-23 22:16:00,32.0,28.8,29.94,NNE,16,0.0,0.0,88,0.00,OVC,,0.00,WeatherDisplay:10.37,2013-03-24 03:16:00,
2013-03-23 22:21:00,32.0,28.8,29.91,NNE,16,0.0,0.0,88,0.00,OVC,,0.00,WeatherDisplay:10.37,2013-03-24 03:21:00,
2013-03-23 22:26:00,32.0,28.8,29.91,NNE,16,0.0,0.0,88,0.00,-SN,,0.00,WeatherDisplay:10.37,2013-03-24 03:26:00,
2013-03-23 22:31:00,32.0,28.8,29.91,NNE,16,0.0,0.0,88,0.00,-SN,,0.00,WeatherDisplay:10.37,2013-03-24 03:31:00,
2013-03-23 22:36:00,32.0,28.8,29.91,NNE,16,0.0,0.0,88,0.00,-SN,,0.00,WeatherDisplay:10.37,2013-03-24 03:36:00,
2013-03-23 22:41:00,32.0,28.8,29.91,NNE,16,0.0,0.0,88,0.00,-SN,,0.00,WeatherDisplay:10.37,2013-03-24 03:41:00,
2013-03-23 22:46:00,32.0,28.0,29.91,NNE,16,0.0,0.0,85,0.00,-SN,,0.00,WeatherDisplay:10.37,2013-03-24 03:46:00,
2013-03-23 22:51:00,32.0,28.0,29.94,NNE,16,0.0,0.0,85,0.00,-SN,,0.00,WeatherDisplay:10.37,2013-03-24 03:51:00,
2013-03-23 22:56:00,32.0,28.0,29.94,NNE,16,0.0,0.0,85,0.00,-SN,,0.00,WeatherDisplay:10.37,2013-03-24 03:56:00,
2013-03-23 23:00:00,32.0,28.0,29.94,NNE,16,0.0,0.0,85,0.00,-SN,,0.00,WeatherDisplay:10.37,2013-03-24 04:00:00,
2013-03-23 23:05:00,32.0,28.0,29.94,NNE,16,0.0,0.0,85,0.00,-SN,,0.00,WeatherDisplay:10.37,2013-03-24 04:05:00,
2013-03-23 23:10:00,32.0,28.0,29.94,NNE,16,0.0,0.0,85,0.00,-SN,,0.00,WeatherDisplay:10.37,2013-03-24 04:10:00,
2013-03-23 23:15:00,32.0,28.0,29.94,NNE,16,0.0,0.0,85,0.00,-SN,,0.00,WeatherDisplay:10.37,2013-03-24 04:15:00,
2013-03-23 23:20:00,32.0,28.0,29.91,NNE,16,0.0,0.0,85,0.00,-SN,,0.00,WeatherDisplay:10.37,2013-03-24 04:20:00,
2013-03-23 23:25:00,32.0,28.0,29.91,NNE,16,0.0,0.0,85,0.00,-SN,,0.00,WeatherDisplay:10.37,2013-03-24 04:25:00,
2013-03-23 23:30:00,32.0,28.0,29.91,NNE,16,0.0,0.0,85,0.00,-SN,,0.00,WeatherDisplay:10.37,2013-03-24 04:30:00,
2013-03-23 23:35:00,32.0,28.0,29.94,NNE,16,0.0,0.0,85,0.00,-SN,,0.00,WeatherDisplay:10.37,2013-03-24 04:35:00,
2013-03-23 23:40:00,32.0,28.0,29.94,NNE,16,0.0,0.0,85,0.00,-SN,,0.00,WeatherDisplay:10.37,2013-03-24 04:40:00,
2013-03-23 23:45:00,32.0,28.0,29.94,NNE,16,0.0,0.0,85,0.00,-SN,,0.00,WeatherDisplay:10.37,2013-03-24 04:45:00,
2013-03-23 23:50:00,32.0,28.0,29.94,NNE,16,0.0,0.0,85,0.00,-SN,,0.00,WeatherDisplay:10.37,2013-03-24 04:50:00,
2013-03-23 23:55:00,32.0,28.0,29.94,NNE,16,0.0,0.0,85,0.00,-SN,,0.00,WeatherDisplay:10.37,2013-03-24 04:55:00,